N456SB LFLL-LFML

Flight info

Callsign N456SB
Flight time 0h 38m
Altitude 17000
Route ROMAM A6 MTL
Aircraft C700/M-SBDGHM1RWXY/LB2

Departure

Time 2026-05-06 17:05
Airport Lyon Saint-Exupéry Airport (LFLL)

Arrival

Time 2026-05-06 17:43
Airport Marseille Provence Airport (LFML)
Time Latitude Longitude Altitude Speed Heading
2026-05-06 16:56 45.72981 5.07909 788 ft 0 kts 262°
2026-05-06 16:58 45.72985 5.07956 787 ft 5 kts 269°
2026-05-06 16:58 45.72999 5.07971 787 ft 0 kts 124°
2026-05-06 16:59 45.72998 5.07972 787 ft 0 kts 124°
2026-05-06 16:59 45.72993 5.07984 787 ft 2 kts 117°
2026-05-06 17:00 45.72992 5.08034 787 ft 10 kts 83°
2026-05-06 17:00 45.73000 5.08155 787 ft 12 kts 86°
2026-05-06 17:00 45.73006 5.08274 787 ft 12 kts 81°
2026-05-06 17:00 45.73066 5.08324 786 ft 12 kts 353°
2026-05-06 17:01 45.73158 5.08313 785 ft 13 kts 355°
2026-05-06 17:01 45.73243 5.08301 783 ft 11 kts 353°
2026-05-06 17:01 45.73317 5.08294 782 ft 10 kts 356°
2026-05-06 17:01 45.73391 5.08283 781 ft 14 kts 354°
2026-05-06 17:02 45.73515 5.08269 779 ft 28 kts 355°
2026-05-06 17:02 45.73687 5.08266 777 ft 18 kts 25°
2026-05-06 17:02 45.73726 5.08346 776 ft 7 kts 80°
2026-05-06 17:02 45.73717 5.08439 776 ft 11 kts 104°
2026-05-06 17:03 45.73695 5.08553 776 ft 15 kts 105°
2026-05-06 17:03 45.73659 5.08702 775 ft 2 kts 147°
2026-05-06 17:03 45.73650 5.08710 776 ft 1 kts 150°
2026-05-06 17:03 45.73613 5.08721 777 ft 9 kts 174°
2026-05-06 17:04 45.73558 5.08728 779 ft 17 kts 174°
2026-05-06 17:04 45.73146 5.08778 787 ft 99 kts 175°
2026-05-06 17:04 45.72236 5.08894 823 ft 159 kts 175°
2026-05-06 17:04 45.71454 5.09015 1058 ft 177 kts 175°
2026-05-06 17:05 45.70163 5.09194 1829 ft 196 kts 178°
2026-05-06 17:05 45.68912 5.09310 2524 ft 175 kts 179°
2026-05-06 17:05 45.67621 5.09439 3219 ft 196 kts 178°
2026-05-06 17:05 45.65825 5.09666 4164 ft 199 kts 178°
2026-05-06 17:06 45.64421 5.09835 4892 ft 204 kts 178°
2026-05-06 17:06 45.63465 5.09954 5379 ft 204 kts 178°
2026-05-06 17:06 45.62063 5.10123 6104 ft 206 kts 178°
2026-05-06 17:06 45.60549 5.10304 6833 ft 231 kts 178°
2026-05-06 17:07 45.58852 5.10508 7591 ft 257 kts 178°
2026-05-06 17:07 45.57035 5.10731 8365 ft 264 kts 177°
2026-05-06 17:07 45.55177 5.10958 9147 ft 273 kts 177°
2026-05-06 17:07 45.53276 5.11186 9931 ft 274 kts 177°
2026-05-06 17:08 45.51345 5.11421 10655 ft 288 kts 177°
2026-05-06 17:08 45.49260 5.11667 11400 ft 315 kts 177°
2026-05-06 17:08 45.46986 5.11941 12179 ft 337 kts 177°
2026-05-06 17:08 45.44631 5.12229 12965 ft 342 kts 177°
2026-05-06 17:09 45.42267 5.12517 13755 ft 349 kts 177°
2026-05-06 17:09 45.39839 5.12806 14469 ft 352 kts 177°
2026-05-06 17:09 45.37393 5.13100 15198 ft 354 kts 177°
2026-05-06 17:09 45.34929 5.13397 15937 ft 358 kts 177°
2026-05-06 17:10 45.32427 5.13697 16693 ft 362 kts 177°
2026-05-06 17:10 45.29905 5.13999 17465 ft 365 kts 177°
2026-05-06 17:10 45.27359 5.14304 18254 ft 370 kts 177°
2026-05-06 17:10 45.24789 5.14610 18988 ft 373 kts 178°
2026-05-06 17:11 45.22232 5.14917 19831 ft 375 kts 178°
2026-05-06 17:11 45.19631 5.15229 20711 ft 376 kts 178°
2026-05-06 17:11 45.17013 5.15541 21620 ft 377 kts 178°
2026-05-06 17:11 45.14405 5.15846 22547 ft 376 kts 179°
2026-05-06 17:12 45.11803 5.15759 23498 ft 372 kts 189°
2026-05-06 17:12 45.09270 5.15107 24308 ft 368 kts 197°
2026-05-06 17:12 45.06874 5.13935 25140 ft 364 kts 205°
2026-05-06 17:12 45.04614 5.12364 26003 ft 360 kts 208°
2026-05-06 17:13 45.02372 5.10800 26894 ft 357 kts 208°
2026-05-06 17:13 45.00188 5.09288 27795 ft 353 kts 208°
2026-05-06 17:13 44.97946 5.07715 28445 ft 356 kts 208°
2026-05-06 17:13 44.95731 5.06158 29277 ft 354 kts 208°
2026-05-06 17:14 44.93526 5.04620 29907 ft 358 kts 208°
2026-05-06 17:14 44.91233 5.03018 29906 ft 376 kts 208°
2026-05-06 17:14 44.88877 5.01375 29923 ft 392 kts 208°
2026-05-06 17:14 44.86371 4.99630 29919 ft 408 kts 208°
2026-05-06 17:15 44.83780 4.97828 29918 ft 424 kts 208°
2026-05-06 17:15 44.81090 4.95958 29921 ft 437 kts 208°
2026-05-06 17:15 44.78340 4.94049 29920 ft 444 kts 208°
2026-05-06 17:16 44.72876 4.90269 29624 ft 419 kts 208°
2026-05-06 17:16 44.70298 4.88473 28584 ft 410 kts 209°
2026-05-06 17:16 44.67810 4.86689 27592 ft 403 kts 209°
2026-05-06 17:16 44.65336 4.84918 26624 ft 396 kts 208°
2026-05-06 17:17 44.62884 4.83196 25637 ft 391 kts 208°
2026-05-06 17:17 44.60359 4.81752 24534 ft 393 kts 200°
2026-05-06 17:17 44.57706 4.80797 23472 ft 395 kts 193°
2026-05-06 17:17 44.54987 4.80286 22238 ft 396 kts 186°
2026-05-06 17:18 44.52278 4.80342 21076 ft 397 kts 179°
2026-05-06 17:18 44.49555 4.80950 19935 ft 398 kts 170°
2026-05-06 17:18 44.46909 4.82082 18966 ft 396 kts 164°
2026-05-06 17:18 44.44412 4.83277 18097 ft 352 kts 165°
2026-05-06 17:19 44.42244 4.84281 17110 ft 312 kts 166°
2026-05-06 17:19 44.40267 4.85206 16144 ft 286 kts 165°
2026-05-06 17:19 44.38470 4.86058 15229 ft 269 kts 165°
2026-05-06 17:19 44.36732 4.86879 14292 ft 259 kts 165°
2026-05-06 17:20 44.35043 4.87671 13287 ft 254 kts 165°
2026-05-06 17:20 44.33385 4.88454 12229 ft 250 kts 165°
2026-05-06 17:20 44.31755 4.89223 11210 ft 246 kts 165°
2026-05-06 17:20 44.30138 4.89983 10223 ft 243 kts 164°
2026-05-06 17:21 44.28549 4.90732 9214 ft 240 kts 164°
2026-05-06 17:21 44.26984 4.91468 8204 ft 237 kts 164°
2026-05-06 17:21 44.25502 4.92169 7985 ft 207 kts 164°
2026-05-06 17:21 44.24257 4.92759 7980 ft 178 kts 165°
2026-05-06 17:22 44.23086 4.93302 7975 ft 183 kts 165°
2026-05-06 17:22 44.21830 4.93887 7988 ft 198 kts 164°
2026-05-06 17:22 44.20483 4.94519 7993 ft 209 kts 164°
2026-05-06 17:22 44.19088 4.95177 7999 ft 215 kts 164°
2026-05-06 17:23 44.17660 4.95848 8011 ft 218 kts 164°
2026-05-06 17:23 44.16224 4.96519 8010 ft 218 kts 164°
2026-05-06 17:23 44.14777 4.97196 8015 ft 219 kts 164°
2026-05-06 17:23 44.13330 4.97876 8009 ft 219 kts 164°
2026-05-06 17:24 44.11895 4.98547 8009 ft 217 kts 164°
2026-05-06 17:24 44.10486 4.99208 8007 ft 218 kts 164°
2026-05-06 17:24 44.09038 4.99882 8004 ft 219 kts 164°
2026-05-06 17:24 44.07591 5.00562 8007 ft 219 kts 164°
2026-05-06 17:25 44.06145 5.01235 8005 ft 219 kts 164°
2026-05-06 17:25 44.04677 5.01920 8004 ft 228 kts 164°
2026-05-06 17:25 44.03150 5.02630 8014 ft 235 kts 164°
2026-05-06 17:25 44.01587 5.03361 8007 ft 239 kts 164°
2026-05-06 17:26 44.00019 5.04092 8012 ft 243 kts 164°
2026-05-06 17:26 43.98410 5.04842 8007 ft 245 kts 164°
2026-05-06 17:26 43.96786 5.05597 8015 ft 247 kts 164°
2026-05-06 17:26 43.95114 5.06373 8015 ft 268 kts 164°
2026-05-06 17:27 43.93311 5.07211 8007 ft 276 kts 164°
2026-05-06 17:27 43.91493 5.08060 8011 ft 275 kts 164°
2026-05-06 17:27 43.89673 5.08905 8009 ft 276 kts 164°
2026-05-06 17:27 43.87854 5.09749 8013 ft 276 kts 163°
2026-05-06 17:28 43.86033 5.10612 8009 ft 276 kts 163°
2026-05-06 17:28 43.84217 5.11484 8018 ft 277 kts 163°
2026-05-06 17:28 43.82423 5.12334 8015 ft 276 kts 163°
2026-05-06 17:28 43.80601 5.13194 8020 ft 277 kts 163°
2026-05-06 17:29 43.78780 5.14061 8022 ft 277 kts 163°
2026-05-06 17:29 43.76962 5.14920 8037 ft 277 kts 164°
2026-05-06 17:29 43.75137 5.15783 8036 ft 277 kts 164°
2026-05-06 17:29 43.73294 5.16654 7824 ft 284 kts 163°
2026-05-06 17:30 43.71418 5.17538 7418 ft 285 kts 163°
2026-05-06 17:30 43.69562 5.18421 7002 ft 280 kts 163°
2026-05-06 17:30 43.67725 5.19295 6595 ft 277 kts 163°
2026-05-06 17:30 43.65908 5.20129 6176 ft 274 kts 166°
2026-05-06 17:31 43.64104 5.20847 5737 ft 272 kts 166°
2026-05-06 17:31 43.62318 5.21619 5532 ft 262 kts 164°
2026-05-06 17:31 43.60613 5.22415 5524 ft 260 kts 164°
2026-05-06 17:31 43.58853 5.23153 5521 ft 267 kts 170°
2026-05-06 17:32 43.57001 5.23294 5525 ft 267 kts 186°
2026-05-06 17:32 43.55180 5.23040 5521 ft 267 kts 188°
2026-05-06 17:32 43.53309 5.22821 5525 ft 266 kts 186°
2026-05-06 17:32 43.51457 5.22599 5527 ft 266 kts 188°
2026-05-06 17:33 43.49614 5.22363 5526 ft 267 kts 187°
2026-05-06 17:33 43.47777 5.22132 5525 ft 267 kts 187°
2026-05-06 17:33 43.45928 5.21903 5526 ft 266 kts 187°
2026-05-06 17:33 43.44085 5.21674 5526 ft 267 kts 187°
2026-05-06 17:34 43.42232 5.21451 5525 ft 267 kts 187°
2026-05-06 17:34 43.40357 5.21244 5286 ft 274 kts 187°
2026-05-06 17:34 43.38477 5.21036 5032 ft 265 kts 187°
2026-05-06 17:34 43.36722 5.20838 5014 ft 241 kts 187°
2026-05-06 17:35 43.35122 5.20659 5015 ft 222 kts 187°
2026-05-06 17:35 43.33635 5.20484 5013 ft 208 kts 188°
2026-05-06 17:35 43.32201 5.20319 5013 ft 208 kts 187°
2026-05-06 17:36 43.29269 5.20039 5017 ft 217 kts 180°
2026-05-06 17:36 43.27803 5.20522 5022 ft 219 kts 159°
2026-05-06 17:36 43.26472 5.21644 4734 ft 231 kts 143°
2026-05-06 17:36 43.25228 5.23035 4361 ft 229 kts 144°
2026-05-06 17:37 43.23979 5.24380 4033 ft 226 kts 139°
2026-05-06 17:37 43.23165 5.26126 4021 ft 215 kts 111°
2026-05-06 17:37 43.22920 5.28137 4026 ft 218 kts 87°
2026-05-06 17:37 43.23306 5.30158 4016 ft 222 kts 62°
2026-05-06 17:38 43.24267 5.31802 4025 ft 222 kts 37°
2026-05-06 17:38 43.25605 5.32768 3764 ft 228 kts 14°
2026-05-06 17:38 43.27211 5.32913 3139 ft 236 kts 354°
2026-05-06 17:38 43.28808 5.32844 3042 ft 221 kts 356°
2026-05-06 17:39 43.30303 5.32830 2941 ft 213 kts 356°
2026-05-06 17:39 43.31834 5.32789 2367 ft 221 kts 356°
2026-05-06 17:39 43.33294 5.32755 2025 ft 194 kts 355°
2026-05-06 17:39 43.34612 5.32719 2022 ft 193 kts 353°
2026-05-06 17:40 43.35890 5.32222 2020 ft 192 kts 326°
2026-05-06 17:40 43.36912 5.31113 2012 ft 187 kts 310°
2026-05-06 17:40 43.37789 5.29836 2037 ft 176 kts 311°
2026-05-06 17:40 43.38628 5.28694 1783 ft 165 kts 310°
2026-05-06 17:41 43.39363 5.27620 1486 ft 147 kts 312°
2026-05-06 17:41 43.40068 5.26640 1235 ft 142 kts 315°
2026-05-06 17:41 43.40741 5.25667 986 ft 140 kts 312°
2026-05-06 17:41 43.41408 5.24712 741 ft 139 kts 315°
2026-05-06 17:42 43.42093 5.23761 493 ft 139 kts 313°
2026-05-06 17:42 43.42752 5.22792 250 ft 139 kts 314°
2026-05-06 17:42 43.43404 5.21889 65 ft 119 kts 313°
2026-05-06 17:42 43.43889 5.21193 36 ft 78 kts 308°
2026-05-06 17:43 43.44083 5.20921 29 ft 1 kts 339°
2026-05-06 17:43 43.44104 5.20938 29 ft 7 kts 59°
2026-05-06 17:43 43.44134 5.21007 29 ft 10 kts 60°
2026-05-06 17:43 43.44149 5.21043 29 ft 0 kts 61°
2026-05-06 17:44 43.44152 5.21051 29 ft 4 kts 61°
2026-05-06 17:44 43.44181 5.21125 29 ft 11 kts 62°
2026-05-06 17:44 43.44222 5.21228 29 ft 13 kts 58°
2026-05-06 17:45 43.44269 5.21345 29 ft 15 kts 61°
2026-05-06 17:45 43.44300 5.21414 29 ft 5 kts 45°
2026-05-06 17:45 43.44336 5.21413 28 ft 7 kts 332°
2026-05-06 17:45 43.44375 5.21352 27 ft 10 kts 297°
2026-05-06 17:46 43.44359 5.21251 27 ft 12 kts 240°
2026-05-06 17:46 43.44349 5.21229 26 ft 0 kts 225°